YAOGAN-35 04B (53524 NORAD) Tracking and Keplerian Element Data

This shows tracking and keplerian element data for the satellite.

Feedback or suggestion? Click here.




ElementValue
Catalog53524
NameYAOGAN-35 04B
Epoch Orbit1422
Epoch Day325.25479871
Epoch Year2022
RAAN339.5584
Inclination35.0016
Eccentricity0.0001483
Argument of Perigee300.3741
Mean Anonmoly59.6822
Mean Motion15.22954353
Decay Rate0.00010211
L11 53524U 22100C 22325.25479871 .00010211 00000+0 42540-3 0 9993
L22 53524 35.0016 339.5584 0001483 300.3741 59.6822 15.22954353 14227



Live tracking and technical data element details for YAOGAN-35 04B (NORAD 53524). YAOGAN-35 04B can be tracked NOW for your location showing map with azimuth and elevation plus other details from your city location.







IsCatalogInMostPopularTable: catalog: 53524, numindb: 4
Update: records affected: 1



GetName: 53524 YAOGAN-35 04B

Hit Count: updated at: Tue, 29 Nov 2022 00:42:24 GMT